Flag for Germany Weather past 2 weeks in Ansbach, Bavaria, Germany

Now
45 °F

Overcast.


Feels Like: 38 °F
Forecast: 34 / 43 °F
Wind: 14 mph from West

Location: Ansbach / Katterbach

Current Time: Dec 23, 2014 at 3:27:26 AM

Latest Report: Dec 23, 2014 at 2:58 AM


Visibility: N/A

Pressure: 30.29 "Hg

Humidity: 87%

Dew point: 41 °F

Location of AnsbachLocation

Historic Weather in Ansbach — Graph

°F

Ansbach temperature yesterday

Maximum temperature yesterday: 45 °F (at 8:58 PM)
Minimum temperature yesterday: 39 °F (at 12:01 AM)
Average temperature yesterday: 42 °F

Past Weeks' High & Low Weather Summary

 TemperatureHumidityPressure
High52 °F (Dec 18, 8:58 PM)100% (Dec 8, 1:58 AM)30.55 "Hg (Dec 8, 1:58 AM)
Low24 °F (Dec 9, 7:58 AM)62% (Dec 13, 1:58 PM)29.77 "Hg (Dec 12, 5:58 PM)
Average39 °F96%30.12 "Hg
* Reported Dec 8 1:58 AM — Dec 23 1:58 AM, Ansbach, Weather by CustomWeather, © 2014

Note: Actual official high and low records may vary slightly from our data, if they occured in-between our weather recording intervals... More about our weather records

Advertising

Ansbach weather history for previous 24 hours

 ConditionsComfort  
Time TempWeatherWind HumidityBarometerVisibility
1:58 AM
Dec 23
45 °FOvercast.20 mph93%30.28 "HgN/A
12:58 AM45 °FOvercast.16 mph93%30.28 "HgN/A
11:58 PM
Dec 22
45 °FOvercast.13 mph93%30.29 "HgN/A
10:58 PM45 °FOvercast.20 mph93%30.29 "HgN/A
9:58 PM45 °FOvercast.15 mph87%30.31 "HgN/A
8:58 PM45 °FOvercast.20 mph87%30.29 "HgN/A
7:58 PM43 °FOvercast.15 mph88%30.29 "HgN/A
3:58 PM43 °FPassing clouds.10 mph86%30.26 "HgN/A
2:58 PM43 °FPassing clouds.16 mph87%30.27 "HgN/A
1:58 PM43 °FScattered clouds.15 mph86%30.27 "HgN/A
12:58 PM42 °FBroken clouds.22 mph87%30.29 "HgN/A
11:58 AM43 °FPartly sunny.25 mph87%30.30 "HgN/A
10:58 AM41 °FMore clouds than sun.23 mph87%30.31 "HgN/A
9:58 AM41 °FOvercast.26 mph88%30.32 "HgN/A
8:58 AM41 °FOvercast.21 mph87%30.32 "HgN/A
7:58 AM40 °FOvercast.23 mph86%30.33 "HgN/A
6:58 AM40 °FOvercast.21 mph85%30.32 "HgN/A
5:58 AM41 °FOvercast.18 mph81%30.33 "HgN/A
4:58 AM40 °FOvercast.20 mph83%30.34 "HgN/A
3:58 AM40 °FOvercast.21 mph85%30.38 "HgN/A
Weather by CustomWeather, © 2014

See weather overviewHow to use our weather pages